Location: Georgenberg
(48.1500°N, 16.2500°E)
Time: 02:36:49
(UTC+01:00)

N. Korean satellite - Pass Details

Date: 06 December 2022
Orbit: 408 x 444 km, 97.3° (Epoch: 28 January)

Event Time Altitude Azimuth Distance (km) Brightness Sun altitude
Rises 06:12:13 0° 0° (N) 2,517 10.0 -12.4°
Reaches altitude 10° 06:14:35 10° 346° (NNW) 1,629 8.9 -12.0°
Maximum altitude 06:17:21 22° 293° (WNW) 1,050 7.6 -11.6°
Drops below altitude 10° 06:20:05 10° 241° (WSW) 1,598 8.8 -11.1°
Sets 06:22:22 0° 226° (SW) 2,455 9.9 -10.8°
